Flag for Germany Weather past 2 weeks in Coburg, Bavaria, Germany

Now
84 °F

Partly sunny.


Feels Like: 82 °F
Forecast: 55 / 83 °F
Wind: 3 mph from Southeast

Location: Bamberg

Current Time: Aug 2, 2015 at 7:36:07 PM

Latest Report: Aug 2, 2015 at 7:00 PM


Visibility: 28 mi

Pressure: 30.01 "Hg

Humidity: 28%

Dew point: 47 °F

Location of CoburgLocation

Historic Weather in Coburg — Graph

°F

Coburg temperature yesterday

Maximum temperature yesterday: 76 °F (at 4:00 PM)
Minimum temperature yesterday: 55 °F (at 7:00 AM)
Average temperature yesterday: 66 °F

Past Weeks' High & Low Weather Summary

 TemperatureHumidityPressure
High95 °F (Jul 22, 4:00 PM)99% (Jul 23, 2:00 AM)30.13 "Hg (Jul 23, 2:00 AM)
Low44 °F (Jul 31, 4:00 AM)25% (Jul 26, 6:00 PM)29.64 "Hg (Jul 25, 1:00 AM)
Average68 °F65%29.90 "Hg
* Reported Jul 18 6:00 PM — Aug 2 6:00 PM, Coburg, Weather by CustomWeather, © 2015

Note: Actual official high and low records may vary slightly from our data, if they occured in-between our weather recording intervals... More about our weather records

Advertising

Coburg weather history for previous 24 hours

 ConditionsComfort  
Time TempWeatherWind HumidityBarometerVisibility
6:00 PM
Sun, Aug 2
82 °FOvercast.2 mph34%30.02 "Hg43 mi
5:00 PM83 °FOvercast.2 mph27%30.02 "Hg43 mi
4:00 PM84 °FPartly sunny.3 mph29%30.02 "Hg37 mi
3:00 PM84 °FPassing clouds.3 mph27%30.03 "Hg25 mi
2:00 PM82 °FSunny.5 mph27%30.05 "Hg28 mi
1:00 PM81 °FSunny.3 mph32%30.06 "Hg25 mi
12:00 PM79 °FSunny.3 mph40%30.07 "Hg25 mi
11:00 AM73 °FSunny.2 mph52%30.08 "Hg19 mi
10:00 AM68 °FSunny.1 mph63%30.09 "Hg10 mi
9:00 AM63 °FPartly sunny.1 mph72%30.09 "Hg12 mi
8:00 AM57 °FSunny.1 mph85%30.10 "Hg9 mi
7:00 AM51 °FPassing clouds.1 mph96%30.10 "Hg7 mi
5:00 AM51 °FOvercast.1 mph97%30.07 "Hg5 mi
4:00 AM51 °FOvercast.1 mph97%30.06 "Hg9 mi
1:00 AM56 °FOvercast.1 mph90%30.04 "Hg15 mi
11:00 PM
Sat, Aug 1
58 °FOvercast.1 mph84%30.01 "Hg31 mi
10:00 PM61 °FOvercast.1 mph80%30.00 "Hg31 mi
8:00 PM70 °FOvercast.2 mph55%29.96 "Hg43 mi
7:00 PM71 °FOvercast.3 mph51%29.95 "Hg43 mi
Weather by CustomWeather, © 2015

See weather overviewHow to use our weather pages